Preview of NWS' New Version of Forecast
This preview is not operational and should not be used for support decisions.

Regional Weather Roundup (RWR)

Issued by National Weather Service (NWS)

                            
000
ASUS45 KBOI 171110
RWRID 

IDAHO REGIONAL WEATHER ROUNDUP
NATIONAL WEATHER SERVICE BOISE ID
500 AM MDT MON JUN 17 2019

NOTE: "FAIR" INDICATES FEW OR NO CLOUDS BELOW 12000 FEET
WITH NO SIGNIFICANT WEATHER AND/OR OBSTRUCTIONS TO VISIBILITY

IDZ012-014-171200-
SOUTHWEST IDAHO

  
CITY           SKY/WX    TMP DP  RH WIND       PRES   REMARKS
BOISE          CLEAR     61  48  62 S3        29.90R                  
CALDWELL       CLEAR     61  50  67 W8        29.89S                  
MOUNTAIN HOME  CLEAR     59  46  62 CALM      29.91R                  
$$

IDZ016-017-171200-
SOUTHCENTRAL IDAHO

  
CITY           SKY/WX    TMP DP  RH WIND       PRES   REMARKS
BURLEY         MOCLDY    57  47  69 N6        29.97R                  
JEROME         MOCLDY    60  45  57 E12       29.97R                  
TWIN FALLS     MOCLDY    60  40  47 SW9       29.97R                  
$$

IDZ019>023-171200-
SOUTHEAST IDAHO

  
CITY           SKY/WX    TMP DP  RH WIND       PRES   REMARKS
IDAHO FALLS    CLOUDY    53  46  77 N9        30.03R                  
POCATELLO      CLOUDY    55  48  77 NW7       30.01R                  
REXBURG        MOCLDY    51  45  79 N3        30.04R                  
$$

IDZ006-010-011-018-031-032-171200-
CENTRAL IDAHO MOUNTAINS

  
CITY           SKY/WX    TMP DP  RH WIND       PRES   REMARKS
MCCALL         CLEAR     51  43  74 CALM      30.02S                  
HAILEY         PTCLDY    52  45  76 NW7       30.07R                  
STANLEY          N/A     43  39  86 CALM      30.13S                  
SALMON         CLEAR     52  50  93 CALM      30.04R                  
CHALLIS        PTCLDY    53  49  86 VRB3      30.07R                  
$$

IDZ002-004-006-007-026-171200-
NORTHERN IDAHO

  
CITY           SKY/WX    TMP DP  RH WIND       PRES   REMARKS
LEWISTON       PTCLDY    64  53  67 CALM      29.90R                  
LOWELL           N/A     57  54  89 CALM      29.96R                  
COEUR D'ALENE  PTCLDY    58  52  80 NE5       29.93R                  
MULLAN PASS    CLEAR     54  41  61 S6        30.10S                  
$$